KJ5JYX Weather Reports


time (UTC)temp
C
wind
direction
speed
KPH
gust
KPH
rain 1hr
cm
rain 24hr
cm
rain mn
cm
humidity
%
barometer
mb
20260510011727 27 159 0.0 0.0 0.00 0.13 0.13 73 1009.7
20260510011222 27 159 0.0 0.0 0.00 0.13 0.13 74 1009.5
20260510010719 27 159 0.0 0.0 0.00 0.13 0.13 73 1009.5
20260510010215 27 159 0.0 0.0 0.00 0.13 0.13 71 1009.5
20260510005712 28 159 0.0 0.0 0.00 0.13 0.13 70 1009.4
20260510005208 28 159 0.0 0.0 0.00 0.13 0.13 72 1009.4
20260510004707 28 159 0.0 0.0 0.00 0.13 0.13 67 1009.6
20260510004205 28 159 0.0 0.0 0.00 0.13 0.13 70 1009.4
20260510003702 29 159 0.0 0.0 0.00 0.13 0.13 69 1009.3
20260510003158 29 159 0.0 0.0 0.00 0.13 0.13 68 1009.4
20260510002657 30 159 0.0 0.0 0.00 0.13 0.13 67 1009.3
20260510002154 30 159 0.0 0.0 0.00 0.13 0.13 65 1009.3
20260510001651 30 159 0.0 0.0 0.00 0.13 0.13 63 1009.2
20260510001150 30 159 0.0 0.0 0.00 0.13 0.13 60 1009.3
20260510000650 30 159 0.0 0.0 0.00 0.13 0.13 60 1009.3
20260510000148 30 159 0.0 0.0 0.00 0.13 0.13 59 1009.2
20260509235644 30 159 0.0 0.0 0.00 0.13 0.13 60 1009.2
20260509235141 30 158 0.0 0.0 0.00 0.13 0.13 63 1009.2
20260509234637 31 159 0.0 0.0 0.00 0.13 0.13 64 1009.2
20260509234134 31 150 1.6 1.6 0.00 0.13 0.13 55 1009.3
20260509233632 31 164 0.0 0.0 0.00 0.13 0.13 56 1009.0
20260509233130 31 165 0.0 0.0 0.00 0.13 0.13 58 1009.2
20260509232625 31 179 0.0 0.0 0.00 0.13 0.13 58 1009.0
20260509232123 31 179 0.0 0.0 0.00 0.13 0.13 54 1008.9
20260509231619 31 213 0.0 1.6 0.00 0.13 0.13 55 1009.3
20260509231117 31 155 1.6 1.6 0.00 0.13 0.13 59 1009.2
20260509230614 31 159 1.6 1.6 0.00 0.13 0.13 60 1009.3
20260509230111 31 122 1.6 1.6 0.00 0.13 0.13 55 1009.3
20260509225606 31 150 1.6 1.6 0.00 0.13 0.13 57 1009.3
20260509225102 31 178 0.0 0.0 0.00 0.13 0.13 54 1009.2
20260509224557 31 181 1.6 1.6 0.00 0.13 0.13 56 1009.2
20260509224055 31 153 0.0 0.0 0.00 0.13 0.13 53 1009.2
20260509223551 31 159 0.0 0.0 0.00 0.13 0.13 57 1009.3
20260509223049 31 160 0.0 0.0 0.00 0.13 0.13 59 1009.3
20260509222545 31 160 1.6 1.6 0.00 0.13 0.13 59 1009.3
20260509222041 31 156 0.0 1.6 0.00 0.13 0.13 60 1009.0
20260509221537 31 166 0.0 0.0 0.00 0.13 0.13 52 1009.3
20260509221033 32 154 1.6 3.2 0.00 0.13 0.13 53 1009.4
20260509220529 32 150 0.0 0.0 0.00 0.13 0.13 55 1009.4
20260509220026 32 91 1.6 3.2 0.00 0.13 0.13 54 1009.5
20260509215521 32 166 1.6 1.6 0.00 0.13 0.13 52 1009.3
20260509215018 32 324 3.2 4.8 0.00 0.13 0.13 52 1009.3
20260509214515 32 148 1.6 3.2 0.00 0.13 0.13 52 1009.4
20260509214012 32 195 1.6 3.2 0.00 0.13 0.13 53 1009.6
20260509213508 32 190 1.6 1.6 0.00 0.13 0.13 55 1009.5
20260509213006 33 171 0.0 1.6 0.00 0.13 0.13 54 1009.6
20260509212502 33 170 1.6 1.6 0.00 0.13 0.13 58 1009.6
20260509211959 33 160 1.6 1.6 0.00 0.13 0.13 53 1009.6
20260509211454 33 193 0.0 0.0 0.00 0.13 0.13 52 1009.6
20260509210951 32 182 1.6 1.6 0.00 0.13 0.13 53 1009.9
20260509210449 32 168 0.0 0.0 0.00 0.13 0.13 61 1009.9
20260509205944 32 141 1.6 1.6 0.00 0.13 0.13 55 1010.1
20260509205439 33 227 1.6 3.2 0.00 0.13 0.13 55 1010.1
20260509204935 32 171 0.0 0.0 0.00 0.13 0.13 56 1010.3
20260509204431 32 196 1.6 1.6 0.00 0.13 0.13 55 1010.3
20260509203928 32 224 3.2 3.2 0.00 0.13 0.13 56 1010.4
20260509203424 32 138 0.0 1.6 0.00 0.13 0.13 56 1010.4
20260509202922 32 160 1.6 1.6 0.00 0.13 0.13 54 1010.4
20260509202417 32 322 3.2 3.2 0.00 0.13 0.13 58 1010.4
20260509201913 32 75 1.6 3.2 0.00 0.13 0.13 55 1010.5
20260509201408 32 212 1.6 3.2 0.00 0.13 0.13 58 1010.6
20260509200905 32 199 1.6 1.6 0.00 0.13 0.13 55 1010.6
20260509200405 32 179 1.6 1.6 0.00 0.13 0.13 54 1010.8
20260509195902 33 157 1.6 1.6 0.00 0.13 0.13 55 1010.7
20260509195403 32 208 1.6 1.6 0.00 0.13 0.13 56 1010.6
20260509194902 31 120 3.2 3.2 0.00 0.13 0.13 57 1010.7
20260509194359 31 140 0.0 0.0 0.00 0.13 0.13 58 1011.1
20260509193855 31 182 1.6 1.6 0.00 0.13 0.13 56 1011.0
20260509193355 32 197 1.6 1.6 0.00 0.13 0.13 59 1010.9
20260509192852 31 299 1.6 3.2 0.00 0.13 0.13 58 1011.0
20260509192348 32 216 3.2 3.2 0.00 0.13 0.13 61 1011.0
20260509191843 31 220 1.6 1.6 0.00 0.13 0.13 57 1010.9
20260509191339 32 238 1.6 3.2 0.00 0.13 0.13 59 1011.1
20260509190835 32 191 1.6 1.6 0.00 0.13 0.13 61 1011.2
20260509190332 31 8 3.2 3.2 0.00 0.13 0.13 59 1011.4
20260509185830 32 191 1.6 1.6 0.00 0.13 0.13 60 1011.5
20260509185326 32 168 0.0 0.0 0.00 0.13 0.13 58 1011.5
20260509184824 32 193 1.6 1.6 0.00 0.13 0.13 62 1011.6
20260509184321 31 139 1.6 3.2 0.00 0.13 0.13 58 1011.8
20260509183817 31 159 0.0 1.6 0.00 0.13 0.13 62 1011.9
20260509183312 31 158 3.2 3.2 0.00 0.13 0.13 64 1012.1
20260509182808 30 158 3.2 3.2 0.00 0.13 0.13 64 1012.2
20260509182307 30 186 1.6 1.6 0.00 0.13 0.13 66 1012.0
20260509181803 29 143 1.6 1.6 0.00 0.13 0.13 66 1012.1
20260509181300 30 169 0.0 0.0 0.00 0.13 0.13 68 1012.1
20260509180758 30 142 0.0 1.6 0.00 0.13 0.13 65 1012.0
20260509180253 30 307 4.8 4.8 0.00 0.13 0.13 65 1012.2
20260509175750 30 172 0.0 0.0 0.00 0.13 0.13 62 1012.1
20260509175246 30 189 1.6 1.6 0.00 0.13 0.13 64 1012.3
20260509174743 31 151 0.0 1.6 0.00 0.13 0.13 59 1012.2
20260509174238 31 156 3.2 4.8 0.00 0.13 0.13 62 1012.3
20260509173734 30 189 0.0 0.0 0.00 0.13 0.13 60 1012.4
20260509173230 30 182 1.6 1.6 0.00 0.13 0.13 68 1012.5
20260509172726 30 134 1.6 1.6 0.00 0.13 0.13 63 1012.5
20260509172223 30 257 1.6 1.6 0.00 0.13 0.13 65 1012.7
20260509171718 30 187 0.0 0.0 0.00 0.13 0.13 64 1012.7
20260509171215 30 198 1.6 1.6 0.00 0.13 0.13 69 1012.6
20260509170712 29 157 1.6 1.6 0.00 0.13 0.13 69 1012.6
20260509170208 30 180 0.0 1.6 0.00 0.13 0.13 67 1012.5
20260509165706 30 182 0.0 1.6 0.00 0.13 0.13 68 1012.7
20260509165201 29 176 1.6 1.6 0.00 0.13 0.13 72 1012.7
20260509164658 30 229 1.6 1.6 0.00 0.13 0.13 68 1012.7
20260509164154 30 174 1.6 3.2 0.00 0.13 0.13 70 1012.7
20260509163651 29 164 1.6 1.6 0.00 0.13 0.13 73 1012.7
20260509163147 29 181 1.6 1.6 0.00 0.13 0.13 70 1012.8
20260509162645 28 208 1.6 1.6 0.00 0.13 0.13 73 1013.0
20260509162140 28 306 3.2 3.2 0.00 0.13 0.13 71 1013.0
20260509161637 28 169 1.6 1.6 0.00 0.13 0.13 74 1013.0
20260509161132 28 176 0.0 0.0 0.00 0.13 0.13 72 1012.8
20260509160628 28 197 1.6 3.2 0.00 0.13 0.13 73 1012.7
20260509160123 28 181 1.6 1.6 0.00 0.13 0.13 74 1012.5
20260509155620 27 193 1.6 1.6 0.00 0.13 0.13 73 1012.4
20260509155116 27 175 0.0 0.0 0.00 0.13 0.13 77 1012.3
20260509154612 27 174 1.6 1.6 0.00 0.13 0.13 77 1012.3
20260509154109 27 253 4.8 4.8 0.00 0.13 0.13 76 1012.2
20260509153606 26 208 0.0 1.6 0.00 0.13 0.13 78 1012.1
20260509153103 26 136 1.6 3.2 0.00 0.13 0.13 80 1012.3
20260509152559 26 190 1.6 1.6 0.00 0.13 0.13 80 1012.3
20260509152057 26 193 1.6 3.2 0.00 0.13 0.13 82 1012.2
20260509151552 26 199 1.6 1.6 0.00 0.13 0.13 84 1012.5
20260509151050 25 174 1.6 3.2 0.00 0.13 0.13 85 1012.5
20260509150548 25 130 1.6 1.6 0.00 0.13 0.13 88 1012.6
20260509150046 25 192 1.6 3.2 0.00 0.13 0.13 88 1012.5
20260509145541 24 170 0.0 0.0 0.00 0.13 0.13 88 1012.4
20260509145037 23 180 0.0 1.6 0.00 0.13 0.13 89 1012.3
20260509144534 23 176 0.0 0.0 0.00 0.13 0.13 91 1012.2
20260509144031 22 179 1.6 1.6 0.00 0.13 0.13 95 1012.3
20260509143528 22 183 0.0 0.0 0.00 0.13 0.13 97 1012.0
20260509143026 22 182 0.0 1.6 0.00 0.13 0.13 99 1012.2
20260509142521 22 173 1.6 1.6 0.00 0.13 0.13 99 1012.2
20260509142017 22 186 0.0 0.0 0.00 0.13 0.13 99 1012.2
20260509141514 21 184 1.6 1.6 0.00 0.13 0.13 99 1012.1
20260509141010 21 174 0.0 0.0 0.00 0.13 0.13 99 1012.3
20260509140507 21 185 0.0 0.0 0.00 0.13 0.13 99 1012.0
20260509140006 21 171 0.0 0.0 0.00 0.13 0.13 99 1012.0
20260509135502 21 151 0.0 1.6 0.00 0.13 0.13 99 1012.0
20260509134959 21 196 1.6 1.6 0.00 0.13 0.13 99 1012.1
20260509134457 21 182 0.0 1.6 0.00 0.13 0.13 99 1011.6
20260509133954 21 184 0.0 1.6 0.00 0.13 0.13 99 1011.9
20260509133451 21 171 0.0 1.6 0.00 0.13 0.13 99 1011.5
20260509132948 21 156 0.0 0.0 0.00 0.13 0.13 99 1011.4
20260509132447 21 234 1.6 3.2 0.00 0.13 0.13 99 1011.1
20260509131943 21 177 0.0 0.0 0.00 0.13 0.13 99 1010.9
20260509131441 21 198 0.0 0.0 0.00 0.13 0.13 99 1011.2
20260509130937 20 172 0.0 0.0 0.00 0.13 0.13 99 1011.2
20260509130432 20 168 0.0 1.6 0.00 0.13 0.13 99 1011.3
20260509125930 20 181 1.6 3.2 0.00 0.13 0.13 99 1011.1
20260509125426 20 180 0.0 0.0 0.00 0.13 0.13 99 1011.2
20260509124922 20 182 0.0 1.6 0.00 0.13 0.13 99 1011.3
20260509124420 20 191 1.6 1.6 0.00 0.13 0.13 99 1011.2
20260509123917 20 175 0.0 0.0 0.00 0.13 0.13 99 1011.8
20260509123414 20 177 0.0 0.0 0.00 0.13 0.13 99 1011.9
20260509122910 20 185 0.0 0.0 0.00 0.13 0.13 99 1012.3
20260509122407 20 170 0.0 0.0 0.00 0.13 0.13 99 1012.3
20260509121904 20 176 0.0 0.0 0.00 0.13 0.13 99 1012.3
20260509121401 20 179 0.0 0.0 0.00 0.13 0.13 99 1012.0
20260509120859 20 175 0.0 0.0 0.00 0.13 0.13 99 1012.0
20260509120356 20 171 1.6 1.6 0.00 0.13 0.13 99 1012.1
20260509115854 20 213 1.6 1.6 0.00 0.13 0.13 99 1012.1
20260509115351 20 177 0.0 0.0 0.00 0.13 0.13 99 1011.8
20260509114849 20 179 0.0 0.0 0.00 0.13 0.13 99 1011.9
20260509114347 20 179 0.0 0.0 0.00 0.13 0.13 99 1012.0
20260509113846 20 163 0.0 0.0 0.00 0.13 0.13 99 1012.1
20260509113343 20 169 0.0 0.0 0.00 0.13 0.13 99 1012.2
20260509112840 20 168 0.0 0.0 0.00 0.13 0.13 99 1012.2
20260509112337 20 176 0.0 0.0 0.00 0.13 0.13 99 1012.4
20260509111834 20 178 0.0 0.0 0.00 0.13 0.13 99 1012.8
20260509111331 20 175 0.0 0.0 0.18 0.13 0.13 99 1012.8
20260509110829 21 185 0.0 0.0 0.18 0.13 0.13 98 1013.0
20260509110324 21 183 0.0 0.0 0.18 0.13 0.13 98 1013.3
20260509105823 21 169 0.0 0.0 0.30 0.10 0.10 97 1013.4
20260509105321 21 177 0.0 0.0 0.61 0.10 0.10 97 1013.7
20260509104817 21 179 1.6 1.6 0.43 0.08 0.08 97 1013.6
20260509104314 21 177 0.0 0.0 0.00 0.00 0.00 97 1013.9
20260509103812 21 197 0.0 1.6 0.00 0.00 0.00 97 1013.9
20260509103309 21 200 1.6 1.6 0.00 0.00 0.00 97 1013.8
20260509102807 21 179 0.0 0.0 0.00 0.00 0.00 97 1013.6
20260509102306 21 180 0.0 0.0 0.00 0.00 0.00 97 1013.6
20260509101800 21 177 1.6 1.6 0.00 0.00 0.00 97 1013.6
20260509101256 21 169 0.0 0.0 0.00 0.00 0.00 97 1013.6
20260509100754 21 199 0.0 1.6 0.00 0.00 0.00 97 1013.5
20260509100251 21 164 0.0 0.0 0.00 0.00 0.00 97 1013.3
20260509095747 21 154 0.0 0.0 0.00 0.00 0.00 97 1013.3
20260509095245 21 158 0.0 0.0 0.00 0.00 0.00 97 1013.0
20260509094742 21 170 0.0 0.0 0.00 0.00 0.00 97 1012.6
20260509094239 21 170 0.0 0.0 0.00 0.00 0.00 98 1012.5
20260509093737 21 167 0.0 0.0 0.00 0.00 0.00 98 1012.4
20260509093234 21 130 1.6 1.6 0.00 0.00 0.00 98 1012.5
20260509092732 21 162 0.0 0.0 0.00 0.00 0.00 98 1012.0
20260509092230 21 140 0.0 0.0 0.00 0.00 0.00 98 1011.8
20260509091728 21 179 0.0 1.6 0.00 0.00 0.00 98 1011.5
20260509091223 21 148 1.6 1.6 0.00 0.00 0.00 98 1011.5
20260509090721 21 148 0.0 1.6 0.00 0.00 0.00 98 1011.4
20260509090218 21 159 0.0 0.0 0.00 0.00 0.00 98 1011.5
20260509085716 21 154 0.0 0.0 0.00 0.00 0.00 98 1011.7
20260509085213 21 180 0.0 0.0 0.00 0.00 0.00 98 1011.7
20260509084709 21 183 0.0 0.0 0.00 0.00 0.00 98 1011.7
20260509084206 21 178 0.0 0.0 0.00 0.00 0.00 98 1011.7
20260509083704 21 164 0.0 0.0 0.00 0.00 0.00 98 1011.7
20260509083200 21 164 0.0 0.0 0.00 0.00 0.00 98 1011.8
20260509082657 21 164 0.0 0.0 0.00 0.00 0.00 98 1012.0
20260509082154 21 164 0.0 0.0 0.00 0.00 0.00 98 1012.1
20260509081651 21 164 0.0 0.0 0.00 0.00 0.00 98 1011.9
20260509081148 21 164 0.0 0.0 0.00 0.00 0.00 98 1012.2
20260509080646 21 164 0.0 0.0 0.00 0.00 0.00 98 1012.2
20260509080144 21 163 0.0 0.0 0.00 0.00 0.00 98 1012.2
20260509075642 21 163 0.0 0.0 0.00 0.00 0.00 98 1012.3
20260509075139 21 162 0.0 0.0 0.00 0.00 0.00 98 1012.4
20260509074636 21 152 0.0 1.6 0.00 0.00 0.00 98 1012.2
20260509074132 21 158 0.0 1.6 0.00 0.00 0.00 98 1012.2
20260509073629 21 169 0.0 0.0 0.00 0.00 0.00 98 1012.3
20260509073125 21 169 0.0 0.0 0.00 0.00 0.00 98 1012.5
20260509072622 21 169 0.0 0.0 0.00 0.00 0.00 98 1012.2
20260509072119 21 169 0.0 0.0 0.00 0.00 0.00 98 1012.3
20260509071616 21 169 0.0 0.0 0.00 0.00 0.00 98 1012.4
20260509071113 21 169 0.0 0.0 0.00 0.00 0.00 98 1012.6
20260509070610 21 169 0.0 0.0 0.00 0.00 0.00 98 1012.6
20260509070106 21 169 0.0 0.0 0.00 0.00 0.00 98 1012.6
20260509065602 21 169 0.0 0.0 0.00 0.00 0.00 98 1012.4
20260509065058 21 169 0.0 0.0 0.00 0.00 0.00 98 1012.5
20260509064556 21 169 0.0 0.0 0.00 0.00 0.00 98 1012.3
20260509064054 21 169 0.0 0.0 0.00 0.00 0.00 98 1012.5
20260509063549 21 169 0.0 0.0 0.00 0.00 0.00 98 1012.6
20260509063047 21 169 1.6 1.6 0.00 0.00 0.00 98 1012.4
20260509062544 21 169 0.0 0.0 0.00 0.00 0.00 98 1012.6
20260509062042 21 168 0.0 0.0 0.00 0.00 0.00 98 1012.6
20260509061538 21 168 0.0 0.0 0.00 0.00 0.00 98 1012.6
20260509061035 21 168 0.0 0.0 0.00 0.00 0.00 98 1013.0
20260509060533 21 168 0.0 0.0 0.00 0.00 0.00 98 1013.0
20260509060028 21 167 0.0 0.0 0.00 0.00 0.00 98 1012.8
20260509055524 21 168 0.0 0.0 0.00 0.00 0.00 98 1012.3
20260509055020 21 166 0.0 0.0 0.00 0.00 0.00 98 1012.3
20260509054517 21 178 0.0 0.0 0.00 0.00 0.00 98 1012.3
20260509054015 21 178 0.0 0.0 0.00 0.00 0.00 98 1012.3
20260509053513 21 183 0.0 0.0 0.00 0.00 0.00 98 1012.1
20260509053010 20 182 0.0 0.0 0.00 0.00 0.00 98 1012.1
20260509052508 20 182 0.0 0.0 0.00 0.00 0.00 98 1012.1
20260509052006 20 182 0.0 0.0 0.00 0.00 0.00 98 1012.1
20260509051503 20 183 0.0 0.0 0.00 0.00 0.00 98 1011.9
20260509051000 20 190 0.0 1.6 0.00 0.00 0.00 98 1011.5
20260509050456 20 181 0.0 0.0 0.00 0.00 0.00 98 1011.3
20260509045953 20 172 0.0 0.0 0.00 0.00 0.00 97 1010.8
20260509045450 20 172 0.0 0.0 0.00 0.00 0.00 97 1010.6
20260509044947 20 182 0.0 1.6 0.00 0.00 0.00 97 1010.5
20260509044445 20 167 0.0 0.0 0.00 0.00 0.00 97 1010.6
20260509043942 21 162 0.0 0.0 0.00 0.00 0.00 97 1010.6
20260509043438 21 164 0.0 0.0 0.00 0.00 0.00 98 1010.7
20260509042933 21 169 0.0 0.0 0.00 0.00 0.00 98 1010.8
20260509042431 21 176 0.0 0.0 0.00 0.00 0.00 98 1010.9
20260509041927 20 173 0.0 0.0 0.00 0.00 0.00 98 1010.9
20260509041424 20 160 0.0 0.0 0.00 0.00 0.00 98 1011.2
20260509040922 20 161 0.0 0.0 0.00 0.00 0.00 98 1011.0
20260509040420 20 162 0.0 0.0 0.00 0.00 0.00 98 1011.3
20260509035916 20 162 0.0 0.0 0.00 0.00 0.00 97 1011.3
20260509035413 20 162 0.0 0.0 0.00 0.00 0.00 97 1011.3
20260509034909 20 162 0.0 0.0 0.00 0.00 0.00 97 1011.4
20260509034408 20 162 0.0 0.0 0.00 0.00 0.00 97 1011.4
20260509033904 20 162 0.0 0.0 0.00 0.00 0.00 97 1011.3
20260509033401 20 162 0.0 0.0 0.00 0.00 0.00 97 1011.3
20260509032858 20 162 0.0 0.0 0.00 0.00 0.00 96 1011.2
20260509032355 20 162 0.0 0.0 0.00 0.00 0.00 96 1011.1
20260509031853 20 162 0.0 0.0 0.00 0.00 0.00 96 1010.9
20260509031350 21 162 0.0 0.0 0.00 0.00 0.00 96 1010.9
20260509030847 21 162 0.0 0.0 0.00 0.00 0.00 96 1010.9
20260509030346 21 162 0.0 0.0 0.00 0.00 0.00 95 1010.7
20260509025842 21 162 0.0 0.0 0.00 0.00 0.00 95 1010.7
20260509025337 21 162 0.0 0.0 0.00 0.00 0.00 95 1010.6
20260509024833 21 162 0.0 0.0 0.00 0.00 0.00 95 1010.6
20260509024330 21 162 0.0 0.0 0.00 0.00 0.00 94 1010.6
20260509023827 21 162 0.0 0.0 0.00 0.00 0.00 94 1010.6
20260509023324 21 162 0.0 0.0 0.00 0.00 0.00 94 1010.6
20260509022821 21 162 0.0 0.0 0.00 0.00 0.00 94 1010.5
20260509022318 21 162 0.0 0.0 0.00 0.00 0.00 93 1010.5
20260509021814 21 162 0.0 0.0 0.00 0.00 0.00 93 1010.6
20260509021312 21 162 0.0 0.0 0.00 0.00 0.00 93 1010.5
20260509020809 22 162 0.0 0.0 0.00 0.00 0.00 92 1010.5
20260509020307 22 162 0.0 0.0 0.00 0.00 0.00 92 1010.4
20260509015805 22 162 0.0 0.0 0.00 0.00 0.00 92 1010.5
20260509015306 22 162 0.0 0.0 0.00 0.00 0.00 91 1010.4
20260509014759 22 162 0.0 0.0 0.00 0.00 0.00 91 1010.3
20260509014256 22 162 0.0 0.0 0.00 0.00 0.00 90 1010.3
20260509013752 22 165 0.0 0.0 0.00 0.00 0.00 89 1010.3
20260509013248 23 173 0.0 0.0 0.00 0.00 0.00 88 1010.2
20260509012745 23 174 0.0 0.0 0.00 0.00 0.00 87 1010.1
20260509012242 23 172 0.0 0.0 0.00 0.00 0.00 87 1010.0